Main page
METAR-TAF:

METAR-TAF

Airports :

Frontone, Italy

latitude: 43-31N, longitude: 012-44E, elevation: 570 m

Current weather observation

The report was made 51 minutes ago, at 19:55 UTC
Wind 6 kt from the South/Southwest
Temperature 24°C
Humidity 78%
Pressure 1009 hPa
Visibility 10 km or more
Few clouds at a height of 2500 ft

METAR: LIVF 271955Z 21006KT 9999 FEW025 24/20 Q1009 RMK SCT MON LIB VAL NIL VIS MIN 9999

Time: 22:46 (20:46 UTC)


TAF: missing

Weather observations and forecasts of more than 4000 airports (METAR and TAF reports).

The available stations are represented by yellow and red dots on the map.

Hover mouse over dot to see the name of the station.

Then click to see weather observations and forecasts.

To change the map : click on the green buttons with a black cross to zoom in, on the green button with a dash to zoom out, or on the green arrows for adjacent maps.


METAR-TAF: